TimeEDT,TemperatureF,Dew PointF,Humidity,Sea Level PressureIn,VisibilityMPH,Wind Direction,Wind SpeedMPH,Gust SpeedMPH,PrecipitationIn,Events,Conditions,WindDirDegrees,DateUTC
12:14 AM,34.7,31.1,87,30.12,10.0,Calm,Calm,-,N/A,,Clear,0,2012-11-03 04:14:00
12:33 AM,32.2,28.8,87,30.12,10.0,Calm,Calm,-,N/A,,Clear,0,2012-11-03 04:33:00
12:54 AM,32.0,29.1,89,30.13,10.0,NW,3.5,-,N/A,,Clear,310,2012-11-03 04:54:00
1:14 AM,32.0,29.3,90,30.13,10.0,NNW,3.5,-,N/A,,Clear,330,2012-11-03 05:14:00
1:33 AM,32.4,29.7,90,30.14,10.0,NW,3.5,-,N/A,,Clear,310,2012-11-03 05:33:00
1:54 AM,31.6,29.1,90,30.14,10.0,Calm,Calm,-,N/A,,Clear,0,2012-11-03 05:54:00
2:13 AM,31.6,29.3,91,30.15,10.0,West,3.5,-,N/A,,Clear,280,2012-11-03 06:13:00
2:33 AM,31.1,28.6,90,30.15,10.0,Calm,Calm,-,N/A,,Clear,0,2012-11-03 06:33:00
2:54 AM,31.1,28.6,90,30.15,10.0,Calm,Calm,-,N/A,,Clear,0,2012-11-03 06:54:00
3:13 AM,31.1,28.6,90,30.15,10.0,Calm,Calm,-,N/A,,Clear,0,2012-11-03 07:13:00
3:34 AM,31.1,28.9,92,30.15,10.0,Calm,Calm,-,N/A,,Clear,0,2012-11-03 07:34:00
3:54 AM,31.1,28.9,92,30.15,10.0,Calm,Calm,-,N/A,,Clear,0,2012-11-03 07:54:00
4:13 AM,30.9,28.4,90,30.15,10.0,North,3.5,-,N/A,,Clear,10,2012-11-03 08:13:00
4:34 AM,30.9,28.6,91,30.15,10.0,WNW,3.5,-,N/A,,Clear,300,2012-11-03 08:34:00
4:54 AM,29.3,27.1,92,30.15,10.0,Calm,Calm,-,N/A,,Clear,0,2012-11-03 08:54:00
5:13 AM,31.1,29.1,92,30.15,10.0,Calm,Calm,-,N/A,,Clear,0,2012-11-03 09:13:00
5:34 AM,30.0,28.0,92,30.16,10.0,Calm,Calm,-,N/A,,Clear,0,2012-11-03 09:34:00
5:54 AM,29.3,27.3,92,30.16,10.0,Calm,Calm,-,N/A,,Clear,0,2012-11-03 09:54:00
6:13 AM,28.4,26.1,91,30.16,10.0,Calm,Calm,-,N/A,,Clear,0,2012-11-03 10:13:00
6:34 AM,28.9,27.1,93,30.15,10.0,Calm,Calm,-,N/A,,Clear,0,2012-11-03 10:34:00
6:53 AM,29.3,27.9,94,30.15,10.0,Calm,Calm,-,N/A,,Clear,0,2012-11-03 10:53:00
7:13 AM,29.1,27.5,94,30.15,10.0,Calm,Calm,-,N/A,,Clear,0,2012-11-03 11:13:00
7:34 AM,30.0,28.2,93,30.16,10.0,Calm,Calm,-,N/A,,Clear,0,2012-11-03 11:34:00
7:53 AM,29.7,28.0,94,30.16,10.0,Calm,Calm,-,N/A,,Clear,0,2012-11-03 11:53:00
8:14 AM,27.7,25.9,93,30.17,10.0,Calm,Calm,-,N/A,,Clear,0,2012-11-03 12:14:00
8:34 AM,26.4,24.8,94,30.17,10.0,Calm,Calm,-,N/A,,Clear,0,2012-11-03 12:34:00
8:53 AM,28.4,26.8,94,30.18,10.0,Calm,Calm,-,N/A,,Clear,0,2012-11-03 12:53:00
9:14 AM,30.4,28.8,94,30.19,10.0,Calm,Calm,-,N/A,,Clear,0,2012-11-03 13:14:00
9:34 AM,32.0,30.9,96,30.19,10.0,Calm,Calm,-,N/A,,Clear,0,2012-11-03 13:34:00
9:53 AM,33.1,31.3,93,30.21,10.0,Calm,Calm,-,N/A,,Clear,0,2012-11-03 13:53:00
10:14 AM,34.2,31.8,91,30.20,10.0,Calm,Calm,-,N/A,,Clear,0,2012-11-03 14:14:00
10:34 AM,35.8,32.0,86,30.20,10.0,North,4.6,-,N/A,,Clear,10,2012-11-03 14:34:00
10:53 AM,36.0,31.6,84,30.21,10.0,NNE,3.5,-,N/A,,Clear,20,2012-11-03 14:53:00
11:14 AM,36.5,31.1,81,30.21,10.0,Calm,Calm,-,N/A,,Mostly Cloudy,0,2012-11-03 15:14:00
11:33 AM,36.5,30.7,80,30.21,10.0,Calm,Calm,-,N/A,,Overcast,0,2012-11-03 15:33:00
11:53 AM,36.9,30.7,79,30.22,10.0,NE,3.5,-,N/A,,Overcast,50,2012-11-03 15:53:00
12:14 PM,37.4,30.0,75,30.22,10.0,Calm,Calm,-,N/A,,Overcast,0,2012-11-03 16:14:00
12:33 PM,37.8,29.8,73,30.21,10.0,Calm,Calm,-,N/A,,Overcast,0,2012-11-03 16:33:00
12:54 PM,38.5,29.8,71,30.21,10.0,Calm,Calm,-,N/A,,Overcast,0,2012-11-03 16:54:00
1:14 PM,39.2,29.8,69,30.21,10.0,NNW,5.8,-,N/A,,Overcast,330,2012-11-03 17:14:00
1:33 PM,38.3,29.3,70,30.19,10.0,Calm,Calm,-,N/A,,Overcast,0,2012-11-03 17:33:00
1:54 PM,39.4,29.8,69,30.18,10.0,NE,3.5,-,N/A,,Mostly Cloudy,40,2012-11-03 17:54:00
2:14 PM,39.4,30.0,69,30.18,10.0,North,3.5,-,N/A,,Mostly Cloudy,10,2012-11-03 18:14:00
2:33 PM,39.2,29.3,68,30.18,10.0,Calm,Calm,-,N/A,,Mostly Cloudy,0,2012-11-03 18:33:00
2:54 PM,40.1,29.7,66,30.17,10.0,WNW,4.6,-,N/A,,Overcast,300,2012-11-03 18:54:00
3:13 PM,41.5,30.0,64,30.16,10.0,WNW,5.8,-,N/A,,Scattered Clouds,300,2012-11-03 19:13:00
3:34 PM,41.5,29.5,62,30.16,10.0,Calm,Calm,-,N/A,,Mostly Cloudy,0,2012-11-03 19:34:00
3:54 PM,41.0,30.0,65,30.16,10.0,North,3.5,-,N/A,,Mostly Cloudy,350,2012-11-03 19:54:00
4:13 PM,40.6,29.3,64,30.16,10.0,Calm,Calm,-,N/A,,Scattered Clouds,0,2012-11-03 20:13:00
4:34 PM,41.2,30.0,65,30.16,10.0,North,3.5,-,N/A,,Mostly Cloudy,10,2012-11-03 20:34:00
4:54 PM,41.0,30.0,65,30.15,10.0,NE,4.6,-,N/A,,Overcast,50,2012-11-03 20:54:00
5:13 PM,41.0,29.8,64,30.16,7.0,NNE,4.6,-,N/A,,Mostly Cloudy,30,2012-11-03 21:13:00
5:34 PM,41.0,29.7,64,30.16,10.0,NNE,4.6,-,N/A,,Scattered Clouds,30,2012-11-03 21:34:00
5:53 PM,39.9,29.3,66,30.15,10.0,NE,3.5,-,N/A,,Scattered Clouds,40,2012-11-03 21:53:00
6:13 PM,39.4,29.3,67,30.16,10.0,NNE,4.6,-,N/A,,Scattered Clouds,30,2012-11-03 22:13:00
6:34 PM,38.5,28.9,69,30.16,10.0,NE,4.6,-,N/A,,Scattered Clouds,40,2012-11-03 22:34:00
6:53 PM,37.9,29.3,71,30.17,10.0,Calm,Calm,-,N/A,,Mostly Cloudy,0,2012-11-03 22:53:00
7:14 PM,37.6,29.3,72,30.17,10.0,NNE,3.5,-,N/A,,Mostly Cloudy,30,2012-11-03 23:14:00
7:34 PM,37.9,29.3,71,30.17,10.0,NE,5.8,-,N/A,,Mostly Cloudy,40,2012-11-03 23:34:00
7:53 PM,37.8,28.9,71,30.17,10.0,NE,4.6,-,N/A,,Overcast,40,2012-11-03 23:53:00
8:14 PM,36.9,29.8,76,30.17,10.0,ENE,3.5,-,N/A,,Mostly Cloudy,70,2012-11-04 00:14:00
8:34 PM,36.0,29.3,77,30.18,10.0,Calm,Calm,-,N/A,,Scattered Clouds,0,2012-11-04 00:34:00
8:53 PM,36.1,29.7,77,30.18,10.0,Calm,Calm,-,N/A,,Mostly Cloudy,0,2012-11-04 00:53:00
9:14 PM,36.0,29.8,78,30.18,10.0,Calm,Calm,-,N/A,,Overcast,0,2012-11-04 01:14:00
9:33 PM,36.0,29.7,78,30.18,10.0,Calm,Calm,-,N/A,,Overcast,0,2012-11-04 01:33:00
9:54 PM,35.6,29.1,77,30.18,10.0,Calm,Calm,-,N/A,,Mostly Cloudy,0,2012-11-04 01:54:00
10:14 PM,34.7,29.3,81,30.18,10.0,Calm,Calm,-,N/A,,Scattered Clouds,0,2012-11-04 02:14:00
10:33 PM,33.3,28.6,83,30.18,10.0,Calm,Calm,-,N/A,,Scattered Clouds,0,2012-11-04 02:33:00
10:54 PM,31.8,27.1,83,30.18,10.0,Calm,Calm,-,N/A,,Scattered Clouds,0,2012-11-04 02:54:00
11:14 PM,31.8,28.0,86,30.18,10.0,Calm,Calm,-,N/A,,Overcast,0,2012-11-04 03:14:00
11:33 PM,32.0,28.2,86,30.19,10.0,Calm,Calm,-,N/A,,Overcast,0,2012-11-04 03:33:00
11:54 PM,31.8,28.4,87,30.19,10.0,Calm,Calm,-,N/A,,Overcast,0,2012-11-04 03:54:00